Preview of NWS' New Version of Forecast
This preview is not operational and should not be used for support decisions.

Regional Weather Roundup (RWR)

Issued by National Weather Service (NWS)

                            
000
ASUS44 KMEG 220700
RWRTN 
TENNESSEE HOURLY STATE WEATHER ROUNDUP
NATIONAL WEATHER SERVICE MEMPHIS TN
200 AM CDT MON APR 22 2019

TNZ002-004-019-021-049-052-054-088>092-220800-
WEST TENNESSEE
  
CITY           SKY/WX    TMP DP  RH WIND       PRES   REMARKS
MEMPHIS INTL   FAIR      59  47  64 S5        30.10S                  
NWS MEMPHIS      N/A     56 N/A N/A MISG        N/A                   
JACKSON        FAIR      49  47  93 CALM      30.12F                  
DYERSBURG      FAIR      57  53  86 S3        30.11F                  
$$

TNZ008-025-027-028-033-062-065-066-220800-
NORTH MIDDLE TENNESSEE
  
CITY           SKY/WX    TMP DP  RH WIND       PRES   REMARKS
NASHVILLE      FAIR      50  42  74 CALM      30.15F                  
CLARKSVILLE    FAIR      51  39  63 SE5       30.14S                  
SMYRNA         FAIR      46  45  96 CALM      30.17F                  
CROSSVILLE     FAIR      44  36  73 CALM      30.19F                  
$$

TNZ061-075-076-078-094-096-097-220800-
SOUTH MIDDLE TENNESSEE
  
CITY           SKY/WX    TMP DP  RH WIND       PRES   REMARKS
$$

TNZ017-018-042-046-047-220800-
NORTHEAST TENNESSEE
  
CITY           SKY/WX    TMP DP  RH WIND       PRES   REMARKS
TRI CITIES     FAIR      40  38  93 CALM      30.19F FOG              
$$

TNZ012-013-036-069-073-074-220800-
CENTRAL EAST TENNESSEE
  
CITY           SKY/WX    TMP DP  RH WIND       PRES   REMARKS
KNOXVILLE      FAIR      50  44  80 NE3       30.16F                  
OAK RIDGE      FAIR      47  43  86 CALM      30.19F                  
$$

TNZ083-085-099-220800-
SOUTHEAST TENNESSEE
  
CITY           SKY/WX    TMP DP  RH WIND       PRES   REMARKS
CHATTANOOGA    FAIR      49  43  80 CALM      30.18S                  
$$

SKY/WX REPORTED AS FAIR MEANS FEW OR NO CLOUDS BELOW
12 THOUSAND FEET.